Flag for China Weather past 2 weeks in Hangzhou, Zhejiang, China

Now
70 °F

Fog.


Feels Like: 70 °F
Forecast: 66 / 83 °F
Wind: 1 mph from West

Location: Hangzhou Airport

Current Time: Apr 1, 2015 at 3:03:23 AM

Latest Report: Apr 1, 2015 at 2:30 AM


Visibility: 2 mi

Pressure: 29.83 "Hg

Humidity: 78%

Dew point: 63 °F

Location of HangzhouLocation

Historic Weather in Hangzhou — Graph

°F

Hangzhou temperature yesterday

Maximum temperature yesterday: 86 °F (at 2:00 PM)
Minimum temperature yesterday: 61 °F (at 2:30 AM)
Average temperature yesterday: 74 °F

Past Weeks' High & Low Weather Summary

 TemperatureHumidityPressure
High86 °F (Mar 31, 2:00 PM)94% (Mar 22, 8:00 AM)30.54 "Hg (Mar 22, 8:00 AM)
Low45 °F (Mar 24, 2:00 AM)26% (Mar 22, 5:00 PM)29.65 "Hg (Mar 18, 2:30 AM)
Average58 °F69%30.13 "Hg
* Reported Mar 17 1:00 AM — Apr 1 1:30 AM, Hangzhou, Weather by CustomWeather, © 2015

Note: Actual official high and low records may vary slightly from our data, if they occured in-between our weather recording intervals... More about our weather records

Advertising

Hangzhou weather history for previous 24 hours

 ConditionsComfort  
Time TempWeatherWind HumidityBarometerVisibility
1:30 AM
Wed, Apr 1
72 °FFog.1 mph78%29.83 "Hg2 mi
1:00 AM72 °FFog.1 mph78%29.83 "Hg2 mi
12:30 AM70 °FFog.No wind83%29.83 "Hg3 mi
12:00 AM70 °FClear.No wind78%29.83 "Hg4 mi
11:30 PM
Tue, Mar 31
72 °FClear.1 mph78%29.83 "Hg4 mi
11:00 PM72 °FClear.3 mph73%29.83 "Hg4 mi
10:30 PM72 °FClear.3 mph73%29.83 "Hg4 mi
10:00 PM73 °FClear.1 mph74%29.83 "Hg4 mi
9:30 PM73 °FClear.3 mph74%29.83 "Hg10 mi
9:00 PM72 °FClear.1 mph78%29.83 "Hg10 mi
8:30 PM73 °FClear.6 mph74%29.80 "Hg10 mi
8:00 PM77 °FClear.No wind57%29.80 "Hg10 mi
7:30 PM79 °FClear.1 mph54%29.77 "Hg10 mi
7:00 PM81 °FClear.3 mph48%29.77 "Hg10 mi
6:30 PM82 °FClear.1 mph48%29.77 "Hg10 mi
6:00 PM84 °FSunny.6 mph43%29.77 "Hg10 mi
5:30 PM84 °FSunny.3 mph43%29.74 "Hg10 mi
5:00 PM86 °FPassing clouds.6 mph40%29.74 "HgN/A
4:30 PM86 °FPassing clouds.6 mph40%29.74 "HgN/A
4:00 PM86 °FPassing clouds.6 mph38%29.74 "HgN/A
3:30 PM86 °FPassing clouds.8 mph43%29.74 "HgN/A
3:00 PM86 °FPassing clouds.8 mph38%29.74 "HgN/A
2:30 PM86 °FPassing clouds.10 mph40%29.77 "HgN/A
2:00 PM86 °FPassing clouds.13 mph43%29.77 "HgN/A
1:30 PM84 °FPassing clouds.8 mph45%29.77 "HgN/A
1:00 PM84 °FPassing clouds.8 mph45%29.80 "HgN/A
12:30 PM84 °FPassing clouds.8 mph43%29.80 "HgN/A
12:00 PM82 °FPassing clouds.8 mph48%29.83 "HgN/A
11:30 AM79 °FPassing clouds.3 mph58%29.86 "HgN/A
10:30 AM79 °FScattered clouds.6 mph54%29.86 "Hg4 mi
10:00 AM77 °FPassing clouds.3 mph54%29.89 "Hg4 mi
9:30 AM75 °FClear.3 mph61%29.89 "Hg4 mi
9:00 AM73 °FHaze.3 mph65%29.89 "Hg3 mi
8:30 AM70 °FHaze.3 mph73%29.89 "Hg2 mi
8:00 AM68 °FHaze.6 mph73%29.89 "Hg1 mi
7:30 AM66 °FFog.1 mph83%29.89 "Hg1 mi
7:00 AM64 °FFog.1 mph83%29.86 "Hg1 mi
6:30 AM63 °FFog.1 mph83%29.86 "Hg1 mi
6:00 AM61 °FFog.3 mph88%29.86 "Hg1 mi
5:30 AM61 °FFog.3 mph88%29.86 "Hg1 mi
5:00 AM61 °FFog.3 mph83%29.86 "Hg1 mi
4:30 AM61 °FFog.No wind88%29.86 "Hg1 mi
4:00 AM61 °FFog.1 mph88%29.86 "Hg1 mi
3:30 AM63 °FFog.3 mph83%29.86 "Hg1 mi
3:00 AM63 °FFog.1 mph83%29.86 "Hg1 mi
Weather by CustomWeather, © 2015

See weather overviewHow to use our weather pages